GW0140 Weather Reports


Display with metric or nautical units.
time (UTC)temp
F
wind
direction
speed
MPH
gust
MPH
rain 1hr
in
rain 24hr
in
rain mn
in
humidity
%
barometer
mb
20260507233407 45 113 0.0 0.0 0.00 0.01 0.00 89 1016.8
20260507232336 45 113 0.0 0.0 0.00 0.01 0.00 89 1016.8
20260507231355 45 113 0.0 0.0 0.00 0.01 0.00 89 1016.8
20260507225214 46 113 0.0 0.0 0.00 0.01 0.01 89 1016.8
20260507224234 47 113 0.0 0.0 0.00 0.01 0.01 88 1017.0
20260507223259 47 113 0.0 0.0 0.00 0.01 0.01 88 1016.9
20260507222323 48 113 0.0 0.0 0.00 0.01 0.01 88 1016.9
20260507221255 48 113 0.0 0.0 0.00 0.01 0.01 87 1016.9
20260507220255 49 113 0.0 0.0 0.00 0.01 0.01 87 1016.9
20260507215238 50 113 0.0 0.0 0.00 0.01 0.01 86 1017.0
20260507214226 50 113 0.0 0.0 0.00 0.01 0.01 85 1017.1
20260507213207 50 113 0.0 0.0 0.00 0.01 0.01 85 1017.0
20260507211026 50 113 0.0 0.0 0.00 0.01 0.01 85 1016.9
20260507210022 50 113 0.0 2.0 0.00 0.01 0.01 85 1016.8
20260507205016 51 113 1.0 2.0 0.00 0.01 0.01 85 1016.8
20260507202850 51 113 1.0 3.0 0.00 0.01 0.01 84 1016.8
20260507200807 51 111 2.0 4.0 0.00 0.01 0.01 83 1016.6
20260507195801 51 115 2.0 4.0 0.00 0.01 0.01 83 1016.5
20260507194750 51 129 3.0 5.0 0.00 0.02 0.01 83 1016.2
20260507193727 51 125 2.0 4.0 0.00 0.03 0.01 82 1016.3
20260507192725 52 146 2.0 5.0 0.00 0.03 0.01 82 1016.3
20260507190532 52 119 6.0 10.0 0.00 0.03 0.01 82 1016.1
20260507185508 52 109 5.0 10.0 0.00 0.04 0.01 82 1016.1
20260507184504 52 113 5.0 10.0 0.00 0.04 0.01 81 1016.3
20260507183441 52 115 5.0 10.0 0.00 0.04 0.01 81 1016.3
20260507182457 52 113 6.0 10.0 0.00 0.04 0.01 81 1016.1
20260507181459 52 114 4.0 9.0 0.00 0.04 0.01 81 1016.2
20260507180502 52 121 5.0 11.0 0.00 0.04 0.01 80 1016.2
20260507174338 52 136 6.0 11.0 0.00 0.05 0.01 79 1016.1
20260507173310 52 107 6.0 11.0 0.00 0.05 0.01 79 1016.1
20260507172244 52 103 7.0 12.0 0.00 0.05 0.01 79 1016.1
20260507171241 52 104 7.0 13.0 0.00 0.05 0.01 79 1016.1
20260507170251 52 122 9.0 13.0 0.00 0.05 0.01 79 1016.1
20260507165250 52 126 7.0 12.0 0.00 0.05 0.01 79 1016.2
20260507164242 52 96 7.0 13.0 0.00 0.05 0.01 78 1016.2
20260507163232 52 140 7.0 13.0 0.00 0.05 0.01 78 1016.2
20260507162209 53 118 7.0 11.0 0.00 0.05 0.01 78 1016.2
20260507161221 53 127 7.0 12.0 0.00 0.05 0.01 77 1016.2
20260507155114 53 138 6.0 11.0 0.00 0.05 0.01 77 1016.3
20260507154056 53 127 6.0 12.0 0.00 0.05 0.01 76 1016.3
20260507153029 53 153 6.0 12.0 0.00 0.05 0.01 75 1016.3
20260507152005 53 114 8.0 11.0 0.00 0.05 0.01 76 1016.3
20260507145834 53 105 6.0 11.0 0.00 0.05 0.01 75 1016.3
20260507144809 53 94 5.0 12.0 0.00 0.05 0.01 75 1016.2
20260507141522 54 131 7.0 16.0 0.00 0.05 0.01 75 1016.2
20260507140530 54 128 9.0 18.0 0.00 0.05 0.01 75 1016.3
20260507135544 53 108 14.0 18.0 0.00 0.05 0.01 77 1016.3
20260507134554 53 97 14.0 17.0 0.00 0.05 0.01 77 1016.3
20260507132351 53 99 14.0 16.0 0.00 0.05 0.01 77 1016.3
20260507131411 53 96 13.0 16.0 0.00 0.05 0.01 77 1016.3
20260507130407 53 92 14.0 16.0 0.00 0.05 0.01 77 1016.2
20260507124219 53 91 12.0 17.0 0.00 0.05 0.01 76 1016.2
20260507123144 53 95 12.0 15.0 0.00 0.05 0.01 78 1016.2
20260507122209 53 100 12.0 15.0 0.00 0.05 0.01 77 1016.2
20260507121206 53 95 11.0 13.0 0.00 0.05 0.01 77 1016.3
20260507120217 53 109 10.0 13.0 0.00 0.05 0.01 75 1016.3
20260507115237 53 104 10.0 14.0 0.00 0.05 0.01 77 1016.4
20260507114215 53 111 12.0 14.0 0.00 0.05 0.01 77 1016.5
20260507113214 53 88 11.0 15.0 0.00 0.05 0.01 77 1016.3
20260507112151 53 93 10.0 15.0 0.00 0.05 0.01 77 1016.5
20260507111208 53 104 9.0 12.0 0.00 0.05 0.01 76 1016.5
20260507110154 53 100 7.0 12.0 0.00 0.05 0.01 73 1016.7
20260507105144 53 121 6.0 10.0 0.00 0.05 0.01 75 1016.7
20260507104138 53 95 5.0 8.0 0.00 0.05 0.01 74 1016.8
20260507103202 53 113 5.0 9.0 0.00 0.04 0.01 74 1016.7
20260507102154 52 86 4.0 9.0 0.00 0.04 0.00 75 1016.7
20260507101156 52 84 4.0 9.0 0.00 0.04 0.00 76 1016.8
20260507100153 52 95 4.0 9.0 0.00 0.04 0.00 77 1016.7
20260507092945 51 78 5.0 8.0 0.00 0.04 0.00 77 1016.6
20260507091945 51 81 2.0 8.0 0.00 0.04 0.00 77 1016.6
20260507090919 51 100 3.0 9.0 0.00 0.04 0.00 77 1016.7
20260507085939 51 103 4.0 9.0 0.00 0.04 0.00 76 1016.5
20260507084956 51 91 2.0 5.0 0.00 0.04 0.00 77 1016.5
20260507083959 51 84 3.0 9.0 0.00 0.04 0.00 77 1016.5
20260507083004 51 96 4.0 9.0 0.00 0.04 0.00 77 1016.4
20260507075644 50 108 5.0 8.0 0.00 0.04 0.00 78 1016.4
20260507073432 50 106 5.0 9.0 0.00 0.04 0.00 79 1016.2
20260507072408 50 95 5.0 9.0 0.00 0.04 0.00 80 1016.2
20260507071337 49 72 6.0 9.0 0.00 0.04 0.00 81 1016.1
20260507070308 49 61 6.0 9.0 0.00 0.04 0.00 82 1016.1
20260507065308 49 69 3.0 8.0 0.00 0.04 0.00 83 1016.1
20260507063213 48 82 3.0 5.0 0.00 0.04 0.00 85 1016.0
20260507062234 48 85 2.0 4.0 0.00 0.04 0.00 85 1016.0
20260507061210 47 85 1.0 3.0 0.00 0.04 0.00 86 1016.0
20260507060202 47 85 3.0 5.0 0.00 0.04 0.00 86 1015.9
20260507055213 46 85 2.0 5.0 0.00 0.04 0.00 87 1015.8
20260507054227 46 69 2.0 4.0 0.00 0.04 0.00 87 1015.8
20260507052036 45 69 2.0 5.0 0.00 0.04 0.00 88 1015.8
20260507051026 45 63 1.0 4.0 0.00 0.04 0.00 88 1015.7
20260507050007 45 151 1.0 3.0 0.00 0.04 0.00 88 1015.6
20260507045017 45 151 1.0 3.0 0.00 0.04 0.00 89 1015.5
20260507044020 45 153 0.0 2.0 0.00 0.04 0.00 89 1015.4
20260507043031 45 153 0.0 2.0 0.00 0.04 0.00 89 1015.4
20260507042019 45 153 0.0 2.0 0.00 0.04 0.00 89 1015.4
20260507040954 45 321 0.0 0.0 0.00 0.04 0.00 89 1015.3
20260507040016 45 321 0.0 2.0 0.00 0.04 0.00 89 1015.3
20260507035016 45 321 0.0 2.0 0.00 0.04 0.00 89 1015.3
20260507032802 45 317 0.0 3.0 0.00 0.04 0.00 89 1015.2
20260507031756 45 305 1.0 2.0 0.00 0.04 0.00 89 1015.2
20260507030811 45 305 0.0 2.0 0.00 0.04 0.00 89 1015.3
20260507025812 45 305 0.0 2.0 0.00 0.04 0.00 89 1015.2
20260507023653 45 305 0.0 2.0 0.00 0.04 0.00 89 1015.1
20260507022707 45 305 0.0 1.0 0.00 0.04 0.00 89 1015.0
20260507021726 45 305 0.0 2.0 0.00 0.04 0.00 89 1015.0
20260507020720 46 305 1.0 4.0 0.00 0.04 0.00 89 1014.9
20260507015706 46 305 2.0 4.0 0.00 0.04 0.00 89 1014.9
20260507014710 46 342 1.0 2.0 0.00 0.04 0.00 88 1014.9
20260507013637 46 5 1.0 4.0 0.00 0.04 0.00 88 1014.8
20260507012622 47 11 2.0 4.0 0.00 0.04 0.00 88 1014.8
20260507011634 47 19 2.0 3.0 0.00 0.04 0.00 88 1014.8
20260507010659 47 32 2.0 3.0 0.00 0.04 0.00 87 1014.8
20260507005702 47 32 2.0 3.0 0.00 0.04 0.00 88 1014.7
20260507004720 47 32 2.0 4.0 0.00 0.04 0.00 87 1014.7
20260507003702 47 32 2.0 4.0 0.00 0.04 0.00 87 1014.7
20260507002641 47 34 2.0 4.0 0.00 0.04 0.00 87 1014.7
20260507001628 47 25 2.0 4.0 0.00 0.04 0.00 87 1014.8
20260507000625 47 24 2.0 4.0 0.00 0.04 0.00 87 1014.8